Find Starlink 5053

NORAD ID: 53913 Int'l Des: 2022-119 Owner: SPXS Country: US Constellation: starlink operational
LEOCIRCULAR

实时位置

正在加载3D地球...

关于 Starlink 5053

正在加载描述...

即将过境

Passes for default location (London). Set your location on the main map for personalized predictions.

高度历史

Loading altitude history...

两行轨道根数

1 53913U 22119AD 26130.01849135 -.00000417 00000-0 -80921-5 0 9998
2 53913 53.2176 38.7868 0001265 87.4085 272.7051 15.08837067201083
Epoch: May 10, 2026 • Age: 13 hours

当前状态

高度 539.7 km
速度 7.60 km/s
星下点 17.45°N, 126.49°E
发射日期 Sep 24, 2022
运行时间 3.6 years
类型 internet

技术详情

分类 Payload
质量 305.00 kg
干质量 290.00 kg
总质量 305.00 kg
长度 0.20 m
直径 2.80 m
跨度 9.00 m
形状 Box + pan
制造商 SPXS
平台类型 Starlink
阶段状态 In Orbit
所有者/国家 SPXS/US

Most Searched